COSMOS 1174 DEB, 12354

Orbit data source: Space-Track

COSMOS 1174 DEB, 12354 is space debris in LEO originally from a launch on Fri, 18 Apr 1980 UTC launched from the Tyuratam Missile And Space Complex (TTMTR). Debris objects in space refer to the collection of defunct objects orbiting the Earth. Examples of debris include non-operational satellites, rocket bodies, and fragments generated from explosions, collisions, or faulty payload assembly.

Loading next visibility...
COSMOS 1174 DEB details
Identifier
12354, 1980-030Y
Orbit
LEO
Last TLE update9 hours ago
Origin
Flag of CISPKO (CIS)
ManufacturerUnknown
MissionSpacecraft
Bus & MotorUnknown
MassUnknown
Launch date (UTC)
1980-04-18 (45 years ago)
Launch vehicleUnknown
Launch site
Tyuratam Missile And Space Complex (TTMTR)
Object type
Payload
Rocket body
Debris
Shape & HBRUnknown
Radar Cross SectionSmall (<0.1 m²)

Expand to show TLE details & history

TLE from 9 hours ago
0 COSMOS 1174 DEB
1 12354U 80030Y   25015.14410556  .00008963  00000-0  38612-3 0  9994
2 12354  66.1043 289.9522 0341458 211.5827 146.4401 14.83398021323899
Epoch: 2025-01-15T03:27Z
Definitive object data (Epoch: 2025-01-15T03:27:30.72Z)
Latitude-0.00002°
Longitude123.23352°
Altitude822.227 km
Speed7.335 km/s
True Right ascension19h 19m 48s
True Declination0° 00' 00"
Sunlit
Object was in daylight at TLE epoch
Visualization TLE readout
Latitude61.90493°
Longitude-113.44902°
Altitude686.072 km
Speed7.489 km/s
Apparent Right ascension01h 51m 16s
Apparent Declination15° 31' 34"
Sunlit
Object is in full shadow
Visualization observer readout
Local Sidereal Time12:43:14
Azimuth340.513° N
Elevation-32.338°
Doppler factor1
Orbital elements
Apogee altitude855.878 km
Perigee altitude378.167 km
Semi-major axis6,995.159 km
Eccentricity0.0341458
Inclination66.1043°
RAAN289.9522°
Arg. of periapsis211.5827°
True anomaly148.52829°
Mean anomaly146.4401°
Eccentric anomaly147.49152°
Mean motion3.70977 °/min
BSTAR0.00038612
Orbital period97.04 mins
Loading maneuver chart data...

COSMOS 1174 DEB Visibility forecast

Observer location: undefined°, undefined

Span
Click to sort rows by Start time (UTC) header in descending order
Start Az.
Max El. time (UTC)
Max El. Az.
Max El.
End time (UTC)
End Az.
9 mins2025-01-15 19:46:56.362Z203.418° SW2025-01-15 19:50:56.362Z131.841° SE44.675°2025-01-15 19:55:56.362Z32.256° NE
6 mins2025-01-15 21:28:56.362Z284.027° WNW2025-01-15 21:30:56.362Z308.514° NW18.371°2025-01-15 21:34:56.362Z357.249° N
6 mins2025-01-16 04:17:56.362Z352.433° N2025-01-16 04:20:56.362Z57.297° ENE30.958°2025-01-16 04:23:56.362Z117.984° SE
|